This demonstration page uses our WeatherBlox Daily Observations layout. Learn more.

Left ArrowRight Arrow

39.01783, -85.05884

Hourly Observations for November 27, 2022

Temp ( °F °C ) Dew Point ( °F °C ) Humidity (%) Winds ( mph kmh ) Pressure ( in mb ) Visibility ( mi km ) Precip ( " mm )
12:52 am 00:52 Cloudy with Light Rain 45 7.2 43 6.1 93 93 ESE 12 19 29.76 1008 10 16 0.06 1.52
1:52 am 01:52 Cloudy with Light Rain 46 7.8 45 7.2 96 96 SE 8 13 29.72 1006 10 16 0.01 0.13
2:31 am 02:31 Cloudy 47 8.3 45 7.2 93 93 SE 9 15 29.71 1006 10 16 0.01 0.25
2:52 am 02:52 Cloudy with Light Rain 47 8.3 46 7.8 97 97 SSE 15 24 29.66 1004 10 16 0.01 0.25
3:04 am 03:04 Cloudy with Heavy Rain 47 8.3 47 8.3 100 100 SE 17 28 29.67 1005 3 4 0.05 1.27
3:31 am 03:31 Cloudy with Light Rain 48 8.9 47 8.3 96 96 SE 16 26 29.63 1004 6 10 0.13 3.30
3:52 am 03:52 Cloudy with Light Rain 48 8.9 48 8.9 100 100 SE 16 26 29.60 1003 10 16 0.14 3.56
4:23 am 04:23 Cloudy with Heavy Rain 49 9.4 48 8.9 97 97 SSE 18 30 29.61 1003 2 3 0.05 1.27
4:49 am 04:49 Cloudy with Light Rain 48 9 48 9 100 100 SE 14 22 29.60 1002 3 5 0.18 4.57
4:52 am 04:52 Cloudy with Light Rain 49 9.4 48 8.9 97 97 SE 14 22 29.57 1002 5 8 0.18 4.57
5:26 am 05:26 Cloudy 50 10 49 9.4 96 96 SSE 15 24 29.57 1001 10 16 0.01 0.13
5:33 am 05:33 Cloudy 50 10 49 9.4 96 96 SSE 14 22 29.57 1001 10 16 0.01 0.13
5:52 am 05:52 Cloudy with Rain 50 10 49 9.4 96 96 SE 14 22 29.53 1000 4 6 0.01 0.13
6:52 am 06:52 Cloudy 50 10 49 9.4 96 96 SE 17 28 29.49 999 10 16 0.05 1.27
7:52 am 07:52 Cloudy 51 10.6 49 9.4 92 92 S 17 28 29.45 997 10 16 0.00 0.00
8:52 am 08:52 Cloudy 52 11.1 51 10.6 97 97 S 14 22 29.41 996 10 16 0.01 0.13
9:15 am 09:15 Cloudy with Heavy Rain 52 11.1 51 10.6 97 97 SSW 16 26 29.44 997 2 3 0.02 0.51
9:19 am 09:19 Cloudy with Heavy Rain 53 11.7 52 11.1 96 96 SSW 20 31 29.44 997 2 2 0.05 1.27
9:31 am 09:31 Cloudy with Rain 53 11.7 53 11.7 100 100 SSW 15 24 29.46 997 3 5 0.08 2.03
9:52 am 09:52 Cloudy 54 12.2 53 11.7 97 97 SW 10 17 29.43 997 10 16 0.10 2.54
10:52 am 10:52 Cloudy 55 12.8 51 10.6 86 86 SW 15 24 29.44 997 10 16 0.00 0.00
11:22 am 11:22 Cloudy with Light Rain 52 11.1 49 9.4 89 89 SW 18 30 29.47 998 3 4 0.01 0.25
11:25 am 11:25 Cloudy with Light Rain 52 11.1 49 9.4 89 89 SW 21 33 29.47 998 6 10 0.02 0.51
11:52 am 11:52 Mostly Cloudy 54 12.2 49 9.4 83 83 SW 23 37 29.45 997 10 16 0.02 0.51
12:12 pm 12:12 Cloudy 53 11.7 47 8.3 80 80 SW 22 35 29.46 998 10 16 0.00 0.00
12:52 pm 12:52 Cloudy 53 11.7 46 7.8 77 77 SW 17 28 29.45 997 10 16 0.00 0.00
1:52 pm 13:52 Cloudy 53 11.7 46 7.8 77 77 SW 18 30 29.45 997 10 16 0.00 0.00
2:52 pm 14:52 Cloudy 52 11.1 45 7.2 77 77 WSW 23 37 29.47 998 10 16 0.00 0.00
3:52 pm 15:52 Cloudy 51 10.6 47 8.3 86 86 SW 20 31 29.51 999 10 16 0.00 0.00
4:38 pm 16:38 Cloudy with Mist and Fog 50 10 48 8.9 93 93 SW 17 28 29.55 1001 4 6 0.01 0.13
4:52 pm 16:52 Cloudy with Mist and Fog 50 10 48 8.9 93 93 SW 17 28 29.54 1000 6 10 0.01 0.13
5:24 pm 17:24 Cloudy with Light Rain 49 9.4 48 8.9 97 97 SW 14 22 29.57 1001 2 3 0.01 0.13
5:30 pm 17:30 Cloudy with Light Rain 49 9.4 48 8.9 97 97 SW 16 26 29.58 1002 2 2 0.01 0.25
5:52 pm 17:52 Cloudy with Light Rain 49 9.4 48 8.9 97 97 SW 16 26 29.57 1001 2 3 0.02 0.51
6:52 pm 18:52 Cloudy with Light Rain 48 8.9 46 7.8 93 93 W 17 28 29.62 1003 3 4 0.04 1.02
7:02 pm 19:02 Cloudy with Light Rain 47 8.3 45 7.2 93 93 W 18 30 29.66 1004 3 4 0.01 0.13
7:18 pm 19:18 Cloudy 47 8.3 45 7.2 93 93 W 15 24 29.67 1005 10 16 0.01 0.13
7:52 pm 19:52 Cloudy 44 6.7 43 6.1 96 96 W 18 30 29.67 1005 9 14 0.01 0.13
8:52 pm 20:52 Cloudy with Mist and Fog 43 6.1 42 5.6 97 97 W 12 19 29.72 1006 6 10 0.00 0.00
9:52 pm 21:52 Cloudy with Mist and Fog 43 6.1 43 6.1 100 100 W 12 19 29.74 1007 5 8 0.00 0.00
10:45 pm 22:45 Cloudy with Mist and Fog 43 6.1 42 5.6 97 97 WNW 13 20 29.79 1009 6 10 0.01 0.13
10:52 pm 22:52 Cloudy with Mist and Fog 43 6.1 42 5.6 97 97 WNW 12 19 29.77 1008 6 10 0.01 0.13
11:52 pm 23:52 Cloudy 43 6.1 42 5.6 97 97 W 9 15 29.79 1009 8 13 0.00 0.00

Powered by AerisWeather